Powrót do katalogu

FENGYUN 1C DEB

AktywnyPO
NORAD 30528·DEBRIS·🇨🇳 China

Wystrzelony May 10, 1999 z Taiyuan Satellite Launch Center

Loading…

Następne Przeloty (najbliższe 24 godziny)

TLE

ŚwieżeSource: Space-Track

Epoka: Sep 14, 2026, 09:33 UTC

1 30528U 99025AJS 26257.39839442  .00000418  00000-0  21780-3 0  9991
2 30528  98.2034 110.0095 0143970 148.7566 336.0601 14.13833291 10301

Śledź FENGYUN 1C DEB w czasie rzeczywistym z AllMySat

Download on the App Store